STARLINK-34668

Last updated on Sat Aug 16 2025 00:02:05 GMT+0000 (Coordinated Universal Time)

1 64814U 25150AA 25227.50223920 .00069037 00000+0 11147-2 0 9997 2 64814 70.0007 315.4851 0002966 267.9080 92.1767 15.52531716 5105

Satellite not in orbit

STARLINK-34668